Weather History for KEUL - May, 2014

Change the Weather History Date:

Sunday, May 11, 2014

  Actual Average (KBOI) Record (KBOI)
Temperature  
Mean Temperature 52 °F 58 °F  
Max Temperature 66 °F 70 °F 93 °F (1941)
Min Temperature 39 °F 45 °F 25 °F (1916)
Degree Days  
Heating Degree Days 12 8  
Month to date heating degree days 106  
Since 1 July heating degree days 5330  
Cooling Degree Days 0 1  
Month to date cooling degree days 10  
Year to date cooling degree days 13  
Growing Degree Days 2 (Base 50)    
Moisture  
Dew Point 31 °F    
Average Humidity 45    
Maximum Humidity 65    
Minimum Humidity 28    
Precipitation  
Precipitation 0.00 in 0.04 in 0.74 in (1958)
Month to date precipitation 0.50  
Year to date precipitation 5.35  
Snow  
Snow 0.00 in 0.00 in T in (1967)
Month to date snowfall 0.0  
Since 1 July snowfall 19.2  
Snow Depth -    
Sea Level Pressure  
Sea Level Pressure 30.14 in    
Wind  
Wind Speed 15 mph (NW)    
Max Wind Speed 22 mph    
Max Gust Speed 33 mph    
Visibility 10 miles    
Events      
T = Trace of Precipitation, MM = Missing Value Source: NWS Daily Summary

Daily Weather History Graph

Daily Weather History Graph

Search for Another Location

Airport or City:

Trip Planner

Search our weather history database for the weather conditions in past years. The results will help you decide how hot, cold, wet, or windy it might be!

Date:

Astronomy

May. 11, 2014 Rise Set
Actual Time 6:25 AM MDT 9:00 PM MDT
Civil Twilight 5:53 AM MDT 9:33 PM MDT
Nautical Twilight 5:12 AM MDT 10:14 PM MDT
Astronomical Twilight 4:26 AM MDT 11:01 PM MDT
Moon 5:55 PM MDT (5/11) 4:40 AM MDT (5/11)
Length of Visible Light 15h 40m
Length of Day
14h 34m
Waxing Gibbous, 89% of the Moon is Illuminated
May 11
Waxing Gibbous
May 14
Full
May 21
Last Quarter
May 28
New
Jun 5
First Quarter

Hourly Weather History & Observations

Time (MDT) Temp. Windchill Dew Point Humidity Pressure Visibility Wind Dir Wind Speed Gust Speed Precip Events Conditions
12:15 AM 46.4 °F 39.8 °F 30.2 °F 53% 30.08 in 10.0 mi NW 16.1 mph - N/A   Mostly Cloudy
12:35 AM 46.4 °F 40.4 °F 30.2 °F 53% 30.08 in 10.0 mi WNW 13.8 mph - N/A   Mostly Cloudy
12:55 AM 46.4 °F 40.4 °F 30.2 °F 53% 30.09 in 10.0 mi WNW 13.8 mph - N/A   Overcast
1:15 AM 46.4 °F 40.1 °F 30.2 °F 53% 30.09 in 10.0 mi NW 15.0 mph - N/A   Overcast
1:35 AM 46.4 °F 40.7 °F 30.2 °F 53% 30.09 in 10.0 mi NW 12.7 mph - N/A   Overcast
1:55 AM 46.4 °F 40.1 °F 30.2 °F 53% 30.09 in 10.0 mi NW 15.0 mph - N/A   Overcast
2:15 AM 46.4 °F 39.8 °F 30.2 °F 53% 30.09 in 10.0 mi WNW 16.1 mph - N/A   Overcast
2:35 AM 46.4 °F 39.8 °F 30.2 °F 53% 30.09 in 10.0 mi WNW 16.1 mph 23.0 mph N/A   Overcast
2:55 AM 44.6 °F 37.4 °F 30.2 °F 57% 30.10 in 10.0 mi NW 16.1 mph 20.7 mph N/A   Overcast
3:15 AM 44.6 °F 38.4 °F 30.2 °F 57% 30.10 in 10.0 mi NW 12.7 mph - N/A   Scattered Clouds
3:35 AM 44.6 °F 37.8 °F 30.2 °F 57% 30.11 in 10.0 mi NW 15.0 mph - N/A   Clear
3:55 AM 42.8 °F 35.8 °F 28.4 °F 57% 30.11 in 10.0 mi NW 13.8 mph - N/A   Clear
4:15 AM 42.8 °F 36.2 °F 28.4 °F 57% 30.11 in 10.0 mi NW 12.7 mph - N/A   Clear
4:35 AM 41.0 °F 34.7 °F 28.4 °F 61% 30.12 in 10.0 mi NW 10.4 mph - N/A   Clear
4:55 AM 41.0 °F 35.2 °F 28.4 °F 61% 30.12 in 10.0 mi NW 9.2 mph - N/A   Clear
5:15 AM 39.2 °F 32.5 °F 28.4 °F 65% 30.13 in 10.0 mi NW 10.4 mph - N/A   Clear
5:35 AM 39.2 °F 32.5 °F 28.4 °F 65% 30.14 in 10.0 mi NW 10.4 mph - N/A   Clear
5:55 AM 39.2 °F 32.5 °F 28.4 °F 65% 30.14 in 10.0 mi WNW 10.4 mph - N/A   Clear
6:15 AM 39.2 °F 32.5 °F 28.4 °F 65% 30.15 in 10.0 mi NW 10.4 mph - N/A   Clear
6:35 AM 39.2 °F 33.0 °F 28.4 °F 65% 30.16 in 10.0 mi WNW 9.2 mph - N/A   Clear
6:55 AM 41.0 °F 34.3 °F 28.4 °F 61% 30.16 in 10.0 mi WNW 11.5 mph - N/A   Clear
7:15 AM 42.8 °F 38.0 °F 30.2 °F 61% 30.17 in 10.0 mi WNW 8.1 mph - N/A   Clear
7:35 AM 42.8 °F 37.0 °F 30.2 °F 61% 30.17 in 10.0 mi WNW 10.4 mph - N/A   Clear
7:55 AM 44.6 °F 39.2 °F 30.2 °F 57% 30.18 in 10.0 mi WNW 10.4 mph - N/A   Clear
8:15 AM 44.6 °F 39.2 °F 32.0 °F 61% 30.18 in 10.0 mi WNW 10.4 mph - N/A   Clear
8:35 AM 46.4 °F 41.9 °F 33.8 °F 62% 30.18 in 10.0 mi WNW 9.2 mph - N/A   Clear
8:55 AM 48.2 °F - 32.0 °F 54% 30.18 in 10.0 mi NNW 11.5 mph - N/A   Clear
9:15 AM 50.0 °F - 33.8 °F 54% 30.18 in 10.0 mi NNW 12.7 mph - N/A   Clear
9:35 AM 51.8 °F - 33.8 °F 50% 30.17 in 10.0 mi NW 17.3 mph 21.9 mph N/A   Clear
9:55 AM 51.8 °F - 32.0 °F 47% 30.17 in 10.0 mi NNW 17.3 mph 24.2 mph N/A   Clear
10:15 AM 53.6 °F - 32.0 °F 44% 30.17 in 10.0 mi NNW 19.6 mph 24.2 mph N/A   Clear
10:35 AM 55.4 °F - 32.0 °F 41% 30.17 in 10.0 mi NNW 16.1 mph 23.0 mph N/A   Clear
10:55 AM 55.4 °F - 33.8 °F 44% 30.16 in 10.0 mi NNW 17.3 mph 21.9 mph N/A   Clear
11:15 AM 57.2 °F - 33.8 °F 41% 30.16 in 10.0 mi NNW 18.4 mph 24.2 mph N/A   Clear
11:35 AM 57.2 °F - 33.8 °F 41% 30.17 in 10.0 mi NW 11.5 mph 23.0 mph N/A   Clear
11:55 AM 59.0 °F - 33.8 °F 39% 30.16 in 10.0 mi NW 17.3 mph 23.0 mph N/A   Clear
12:15 PM 60.8 °F - 33.8 °F 36% 30.16 in 10.0 mi NNW 15.0 mph 23.0 mph N/A   Partly Cloudy
12:35 PM 60.8 °F - 33.8 °F 36% 30.15 in 10.0 mi North 16.1 mph 21.9 mph N/A   Partly Cloudy
12:55 PM 62.6 °F - 33.8 °F 34% 30.14 in 10.0 mi NNW 17.3 mph 23.0 mph N/A   Clear
1:15 PM 62.6 °F - 33.8 °F 34% 30.14 in 10.0 mi North 16.1 mph 27.6 mph N/A   Mostly Cloudy
1:35 PM 62.6 °F - 33.8 °F 34% 30.13 in 10.0 mi NNW 18.4 mph 26.5 mph N/A   Mostly Cloudy
1:55 PM 64.4 °F - 33.8 °F 32% 30.13 in 10.0 mi NNW 17.3 mph 33.4 mph N/A   Mostly Cloudy
2:15 PM 64.4 °F - 33.8 °F 32% 30.13 in 10.0 mi NNW 15.0 mph 28.8 mph N/A   Mostly Cloudy
2:55 PM 64.4 °F - 33.8 °F 32% 30.13 in 10.0 mi NNW 21.9 mph 28.8 mph N/A   Mostly Cloudy
3:15 PM 62.6 °F - 32.0 °F 32% 30.13 in 10.0 mi NNW 20.7 mph 24.2 mph N/A   Scattered Clouds
3:35 PM 64.4 °F - 32.0 °F 30% 30.13 in 10.0 mi North 19.6 mph 25.3 mph N/A   Mostly Cloudy
3:55 PM 64.4 °F - 33.8 °F 32% 30.13 in 10.0 mi NW 17.3 mph 26.5 mph N/A   Mostly Cloudy
4:15 PM 64.4 °F - 33.8 °F 32% 30.12 in 10.0 mi NNW 20.7 mph 27.6 mph N/A   Mostly Cloudy
4:35 PM 62.6 °F - 32.0 °F 32% 30.12 in 10.0 mi NW 21.9 mph 26.5 mph N/A   Scattered Clouds
4:55 PM 64.4 °F - 33.8 °F 32% 30.12 in 10.0 mi NNW 18.4 mph 25.3 mph N/A   Partly Cloudy
5:15 PM 66.2 °F - 33.8 °F 30% 30.12 in 10.0 mi NW 18.4 mph 25.3 mph N/A   Scattered Clouds
5:35 PM 66.2 °F - 32.0 °F 28% 30.12 in 10.0 mi NNW 20.7 mph 27.6 mph N/A   Mostly Cloudy
5:55 PM 66.2 °F - 32.0 °F 28% 30.12 in 10.0 mi NNW 17.3 mph - N/A   Partly Cloudy
6:15 PM 64.4 °F - 32.0 °F 30% 30.13 in 10.0 mi NNW 17.3 mph 29.9 mph N/A   Scattered Clouds
6:35 PM 62.6 °F - 32.0 °F 32% 30.13 in 10.0 mi North 13.8 mph - N/A   Mostly Cloudy
6:55 PM 62.6 °F - 30.2 °F 30% 30.13 in 10.0 mi North 21.9 mph 27.6 mph N/A   Mostly Cloudy
7:15 PM 60.8 °F - 32.0 °F 34% 30.14 in 10.0 mi NNW 16.1 mph 21.9 mph N/A   Mostly Cloudy
7:35 PM 60.8 °F - 32.0 °F 34% 30.15 in 10.0 mi NNW 13.8 mph 23.0 mph N/A   Overcast
7:55 PM 60.8 °F - 32.0 °F 34% 30.15 in 10.0 mi NNW 13.8 mph 24.2 mph N/A   Overcast
8:15 PM 60.8 °F - 32.0 °F 34% 30.16 in 10.0 mi North 18.4 mph - N/A   Overcast
8:35 PM 57.2 °F - 30.2 °F 36% 30.16 in 10.0 mi NNW 17.3 mph 23.0 mph N/A   Scattered Clouds
8:55 PM 57.2 °F - 30.2 °F 36% 30.17 in 10.0 mi NNW 13.8 mph - N/A   Clear
9:15 PM 55.4 °F - 32.0 °F 41% 30.17 in 10.0 mi NNW 15.0 mph - N/A   Clear
9:35 PM 53.6 °F - 32.0 °F 44% 30.18 in 10.0 mi North 17.3 mph 20.7 mph N/A   Clear
10:15 PM 53.6 °F - 30.2 °F 41% 30.20 in 10.0 mi North 15.0 mph - N/A   Clear
10:35 PM 51.8 °F - 30.2 °F 44% 30.20 in 10.0 mi North 16.1 mph - N/A   Clear
10:55 PM 51.8 °F - 30.2 °F 44% 30.21 in 10.0 mi NNW 13.8 mph - N/A   Clear
11:15 PM 51.8 °F - 30.2 °F 44% 30.21 in 10.0 mi North 17.3 mph - N/A   Clear
11:35 PM 50.0 °F - 30.2 °F 47% 30.22 in 10.0 mi NNW 10.4 mph - N/A   Clear
11:55 PM 48.2 °F - 30.2 °F 50% 30.23 in 10.0 mi WNW 11.5 mph - N/A   Clear